DW5274 Weather Reports


Display with metric or nautical units.
time (UTC)temp
F
wind
direction
speed
MPH
gust
MPH
rain 1hr
in
rain 24hr
in
rain mn
in
humidity
%
barometer
mb
20260509224513 75 331 4.0 0.0 0.00 0.00 0.00 23 1015.4
20260509223011 75 11 4.0 0.0 0.00 0.00 0.00 24 1015.6
20260509221509 75 327 4.0 0.0 0.00 0.00 0.00 23 1015.9
20260509220007 74 290 4.0 0.0 0.00 0.00 0.00 24 1016.1
20260509214505 74 263 5.0 0.0 0.00 0.00 0.00 23 1016.3
20260509213003 74 325 2.0 0.0 0.00 0.00 0.00 26 1016.4
20260509211547 74 327 2.0 0.0 0.00 0.00 0.00 23 1016.5
20260509210047 73 342 4.0 0.0 0.00 0.00 0.00 25 1016.8
20260509204525 73 280 0.0 0.0 0.00 0.00 0.00 25 1016.8
20260509203033 74 269 0.0 0.0 0.00 0.00 0.00 30 1017.0
20260509201508 72 338 0.0 0.0 0.00 0.00 0.00 31 1017.1
20260509200009 72 333 0.0 0.0 0.00 0.00 0.00 32 1017.2
20260509194507 71 328 0.0 0.0 0.00 0.00 0.00 37 1017.3
20260509193008 70 325 0.0 0.0 0.00 0.00 0.00 36 1017.6
20260509191507 69 328 0.0 0.0 0.00 0.00 0.00 38 1017.9
20260509190007 69 321 2.0 0.0 0.00 0.00 0.00 37 1018.1
20260509184508 69 318 2.0 0.0 0.00 0.00 0.00 37 1018.1
20260509183006 67 344 4.0 0.0 0.00 0.00 0.00 36 1018.3
20260509181550 67 261 5.0 0.0 0.00 0.00 0.00 38 1018.3
20260509180047 67 289 4.0 0.0 0.00 0.00 0.00 36 1018.3
20260509174545 66 330 4.0 0.0 0.00 0.00 0.00 40 1018.4
20260509173036 64 348 4.0 0.0 0.00 0.00 0.00 42 1018.5
20260509171541 64 317 4.0 0.0 0.00 0.00 0.00 44 1018.5
20260509170034 63 304 4.0 0.0 0.00 0.00 0.00 45 1018.5
20260509164535 62 325 4.0 0.0 0.00 0.00 0.00 48 1018.5
20260509163043 61 320 3.0 0.0 0.00 0.00 0.00 49 1018.6
20260509161541 60 321 1.0 0.0 0.00 0.00 0.00 49 1018.5
20260509160032 59 333 0.0 0.0 0.00 0.00 0.00 55 1018.4
20260509154531 57 334 0.0 0.0 0.00 0.00 0.00 55 1018.5
20260509153025 57 321 0.0 0.0 0.00 0.00 0.00 55 1018.4
20260509151514 56 319 0.0 0.0 0.00 0.00 0.00 57 1018.4
20260509150104 55 302 0.0 0.0 0.00 0.00 0.00 57 1018.4
20260509150004 55 302 0.0 0.0 0.00 0.00 0.00 57 1018.4
20260509144600 54 302 2.0 0.0 0.00 0.00 0.00 58 1018.4
20260509143102 53 302 1.0 0.0 0.00 0.00 0.00 61 1018.3
20260509141601 51 301 0.0 0.0 0.00 0.00 0.00 65 1018.3
20260509140105 49 301 0.0 0.0 0.00 0.00 0.00 66 1018.2
20260509134556 48 301 0.0 0.0 0.00 0.00 0.00 69 1018.1
20260509133054 47 301 0.0 0.0 0.00 0.00 0.00 70 1018.0
20260509131554 47 301 0.0 0.0 0.00 0.00 0.00 69 1017.8
20260509130032 47 301 0.0 0.0 0.00 0.00 0.00 67 1017.5
20260509124529 48 301 0.0 0.0 0.00 0.00 0.00 65 1017.3
20260509123010 49 301 0.0 0.0 0.00 0.00 0.00 62 1017.2
20260509121512 49 301 0.0 0.0 0.00 0.00 0.00 61 1017.1
20260509120049 50 301 0.0 0.0 0.00 0.00 0.00 60 1017.0
20260509114546 50 301 0.0 0.0 0.00 0.00 0.00 59 1016.8
20260509113026 51 301 0.0 0.0 0.00 0.00 0.00 57 1016.8
20260509111523 52 301 0.0 0.0 0.00 0.00 0.00 56 1016.8
20260509110009 52 301 0.0 0.0 0.00 0.00 0.00 54 1016.8
20260509104510 53 301 0.0 0.0 0.00 0.00 0.00 54 1016.7
20260509103004 54 301 0.0 0.0 0.00 0.00 0.00 52 1016.6
20260509101502 54 301 0.0 0.0 0.00 0.00 0.00 49 1016.5
20260509100031 55 304 0.0 0.0 0.00 0.00 0.00 47 1016.4
20260509094600 55 317 0.0 0.0 0.00 0.00 0.00 47 1016.4
20260509093059 55 338 0.0 0.0 0.00 0.00 0.00 47 1016.4
20260509091557 55 342 0.0 0.0 0.00 0.00 0.00 47 1016.2
20260509090048 55 343 0.0 0.0 0.00 0.00 0.00 47 1016.1
20260509084537 55 344 0.0 0.0 0.00 0.00 0.00 47 1016.0
20260509083017 56 344 0.0 0.0 0.00 0.00 0.00 46 1015.8
20260509081517 56 344 0.0 0.0 0.00 0.00 0.00 46 1015.8
20260509080100 56 348 0.0 0.0 0.00 0.00 0.00 47 1015.8
20260509074607 56 348 0.0 0.0 0.00 0.00 0.00 49 1015.6
20260509073037 56 355 0.0 0.0 0.00 0.00 0.00 51 1015.3
20260509071534 57 360 0.0 0.0 0.00 0.00 0.00 50 1015.1
20260509070019 58 360 0.0 0.0 0.00 0.00 0.00 48 1014.8
20260509064516 58 360 0.0 0.0 0.00 0.00 0.00 47 1014.5
20260509063017 58 5 0.0 0.0 0.00 0.00 0.00 48 1014.3
20260509061512 58 28 0.0 0.0 0.00 0.00 0.00 49 1014.1
20260509060008 59 28 0.0 0.0 0.00 0.00 0.00 48 1014.0
20260509054506 60 28 0.0 0.0 0.00 0.00 0.00 47 1013.8
20260509053002 61 28 0.0 0.0 0.00 0.00 0.00 46 1013.5
20260509051606 61 28 0.0 0.0 0.00 0.00 0.00 45 1013.3
20260509050048 62 28 0.0 0.0 0.00 0.00 0.00 43 1013.1
20260509044535 63 28 0.0 0.0 0.00 0.00 0.00 42 1012.9
20260509043014 64 28 0.0 0.0 0.00 0.00 0.00 42 1012.8
20260509041512 65 28 0.0 0.0 0.00 0.00 0.00 38 1012.5
20260509040051 66 28 0.0 0.0 0.00 0.00 0.00 35 1012.2
20260509034550 67 28 0.0 0.0 0.00 0.00 0.00 33 1011.8
20260509033025 69 28 0.0 0.0 0.00 0.00 0.00 32 1011.5
20260509031530 71 28 0.0 0.0 0.00 0.00 0.00 30 1011.3
20260509030105 72 28 0.0 0.0 0.00 0.00 0.00 28 1011.2
20260509024604 73 28 0.0 0.0 0.00 0.00 0.00 28 1011.1
20260509023039 74 28 0.0 0.0 0.00 0.00 0.00 26 1010.9
20260509021537 75 30 0.0 0.0 0.00 0.00 0.00 25 1010.9
20260509020019 75 28 0.0 0.0 0.00 0.00 0.00 25 1010.7
20260509014518 74 30 1.0 0.0 0.00 0.00 0.00 25 1010.7
20260509013111 75 32 1.0 0.0 0.00 0.00 0.00 25 1010.7
20260509011600 76 34 3.0 0.0 0.00 0.00 0.00 23 1010.7
20260509010044 76 28 4.0 0.0 0.00 0.00 0.00 22 1010.8
20260509004548 76 26 0.0 0.0 0.00 0.00 0.00 23 1010.9
20260509003021 76 43 0.0 0.0 0.00 0.00 0.00 23 1010.9
20260509001520 75 24 0.0 0.0 0.00 0.00 0.00 22 1011.1
20260509000001 77 34 0.0 0.0 0.00 0.00 0.00 21 1011.1
20260508234610 78 40 0.0 0.0 0.00 0.00 0.00 22 1011.1
20260508233045 77 32 3.0 0.0 0.00 0.00 0.00 21 1011.3
20260508231549 76 22 0.0 0.0 0.00 0.00 0.00 23 1011.2
20260508230042 75 34 0.0 0.0 0.00 0.00 0.00 22 1011.3